User: anonymous   Login
Location: Unspecified
(0.0000°N, 0.0000°E)
Time: 19:12:12
(UTC+00:00)
Language:

ONEWEB-0428 - Orbit

View from above orbital plane
View from above orbital plane
View from above satellite
View from above satellite

Ground track
Ground track

The orbit is defined by the following mean orbital elements,

1 51629U          26145.40952037 +.00000000 +00000-0 +34651-4 0 00007
2 51629  87.8849  40.8089 0001810  78.1807 281.9524 13.10370543    07
Epoch (UTC): 25 May 2026 09:49:42
Eccentricity: 0.0001810
inclination: 87.8849°
perigee height: 1220 km
apogee height: 1223 km
right ascension of ascending node: 40.8089°
argument of perigee: 78.1807°
revolutions per day: 13.10370543
mean anomaly at epoch: 281.9524°

The dashed part of the orbit path shows where the satellite is in the earth's shadow,  

DLR